SCP
0 -0 -0 0 0 -0 0 0 0 -0 -0 0 -0 0 0 0 0 0 -0 -0 -0 -1 -0 -0 -0 -0 -0 -0 -0 -0 -0 -0 -0 -0 -0 -0 -0 0 0 0 0 0 0 0 0 0 0 0 0
0 0 0 0 0 0 -0 0 0 0 -0 -0 -0 0 0 0 0 -0 -0 -0 -0 -1 -0 -0 -1 -0 -0 -0 -0 -0 -0 -0 -0 -0 -0 -0 -0 -0 0 0 0 0 0 0 0 0 0 0 0
0 0 0 -0 -0 0 -0 0 0 -0 -0 -0 0 0 0 0 -0 -0 -0 -0 -0 -0 -0 -0 -1 -0 -0 -0 -0 -0 -0 -0 -0 -0 -0 -0 -0 -0 0 0 0 0 0 0 0 0 0 0 0
0 0 0 0 0 -0 -0 -0 0 -0 -0 0 0 0 1 0 0 -0 -0 -0 -0 -0 -0 -1 -1 -0 -0 -0 -0 -0 -0 -0 -0 -0 -0 -0 -0 -0 -0 0 0 0 0 0 0 0 0 0 0
0 0 0 0 0 0 -0 -0 0 0 0 0 0 0 1 1 0 -0 -0 -0 -0 0 0 -0 -1 -1 -0 -0 -0 -0 -0 -0 -0 -0 -0 -0 -0 -0 -0 0 0 0 0 0 0 0 0 0 0
0 0 0 0 0 0 -0 0 -0 0 0 0 0 1 2 1 0 0 -0 -0 0 0 0 0 -0 -0 -0 -0 -0 -0 -0 -0 -0 -0 -0 -0 -0 -0 -0 -0 0 0 0 0 0 0 0 0 0
0 0 0 0 0 0 0 -0 -0 0 0 0 0 3 1 0 0 0 -0 -0 0 0 1 1 1 0 -0 -0 -0 -0 0 -0 -0 -0 -0 -0 -0 -0 -0 -0 -0 0 0 0 0 0 0 0 0
0 0 0 0 0 0 0 0 0 0 -0 0 1 0 0 0 0 -0 -0 0 0 0 0 0 1 0 0 0 0 0 0 0 0 -0 -0 -0 -0 -0 -0 -0 -0 -0 0 0 0 0 0 0 -0
0 0 0 0 0 0 0 -0 0 0 0 0 1 -0 -0 -0 -0 0 0 0 0 0 0 0 0 0 0 0 0 0 0 0 0 0 0 0 0 0 0 -0 -0 -0 -0 -0 -0 -0 0 0 0
0 0 0 0 0 0 0 -0 -0 0 0 -0 1 1 -0 -0 -0 0 0 0 0 0 0 0 0 0 0 0 0 0 0 0 0 0 0 0 0 0 0 0 -0 -0 -0 -0 -0 0 0 0 0
0 0 0 0 0 0 -0 -0 -0 0 0 0 0 1 0 0 0 0 0 0 -0 0 0 0 0 0 0 0 0 0 0 0 0 0 0 0 -0 -0 0 0 0 -0 0 0 0 0 0 0 0
0 0 0 0 0 0 0 -0 -0 0 -0 0 0 0 0 0 0 0 0 0 0 0 0 0 0 0 0 0 0 0 0 0 0 0 0 0 -0 -0 0 0 0 0 0 0 0 0 0 0 -0
0 0 0 0 0 0 0 0 0 0 0 0 -0 0 0 0 0 0 0 0 0 0 0 0 0 0 0 0 0 0 0 0 0 0 0 0 0 0 0 0 0 0 0 0 0 0 0 0 0
0 0 0 0 0 0 0 0 0 0 0 0 0 0 0 0 0 -0 0 0 1 1 0 0 0 0 0 0 0 0 0 0 0 0 0 0 0 0 0 0 0 0 0 0 0 0 0 0 0
0 0 0 0 0 0 0 0 0 0 0 0 0 0 0 0 0 0 -0 0 1 1 1 0 0 1 0 0 0 0 0 0 0 0 0 0 0 0 0 0 0 0 0 0 0 0 0 0 0
0 0 0 0 0 0 0 0 0 0 0 0 0 0 0 0 0 1 0 1 2 3 2 1 1 3 1 1 1 0 0 1 1 0 0 0 0 0 0 0 0 0 0 0 0 0 0 0 0
0 0 0 0 0 0 0 0 0 0 0 0 0 0 0 0 0 2 2 2 2 2 2 3 3 4 3 2 1 1 0 1 1 0 0 0 0 0 0 0 0 0 0 0 0 0 0 0 0
0 0 0 0 0 -0 -0 0 0 0 0 0 0 0 0 0 0 0 3 4 3 3 3 4 3 3 4 2 1 1 1 1 0 0 0 0 0 0 0 0 0 0 0 0 0 0 0 0 0
-0 0 0 -0 -0 0 0 0 0 0 0 0 0 0 0 0 0 0 4 6 6 3 2 3 4 3 4 2 2 2 2 0 0 0 0 0 0 0 0 0 0 0 0 0 0 0 0 0 0
0 -0 -0 0 0 0 0 0 0 0 0 0 0 0 0 0 0 0 3 6 7 3 3 2 4 5 4 2 2 2 1 0 0 0 0 0 0 0 0 0 0 0 0 0 0 0 0 0 0
0 0 0 0 0 0 0 0 0 0 0 0 0 0 0 0 0 0 2 5 6 5 3 3 4 3 3 2 2 3 1 0 0 0 0 0 0 0 0 0 0 0 0 0 0 0 0 0 0
0 0 0 0 0 -0 0 0 0 0 0 0 0 0 0 0 0 0 3 5 7 7 4 3 6 5 3 3 2 3 2 0 0 0 0 0 0 0 0 0 0 0 0 0 0 0 0 0 0
0 0 0 0 0 0 0 0 0 0 0 0 0 0 -0 0 0 0 2 6 6 7 6 5 5 4 4 2 2 3 2 0 0 0 0 0 0 0 0 0 0 0 0 0 0 0 0 0 0
0 0 0 0 0 0 0 0 -0 0 0 0 0 0 0 -0 0 0 1 5 7 5 5 4 5 4 4 3 1 3 2 0 0 0 0 0 0 0 0 0 0 0 0 0 0 0 0 0 0
0 0 0 0 0 0 0 0 0 0 0 0 0 0 0 0 0 0 1 1 3 4 5 6 5 7 4 4 3 4 1 0 0 0 0 0 0 0 0 0 0 0 0 0 0 0 0 0 0
0 0 0 0 0 0 0 0 0 0 0 0 0 0 0 0 0 0 0 1 2 5 4 1 4 2 3 2 4 6 1 0 0 0 0 0 0 0 0 0 0 0 0 0 0 0 0 0 0
0 0 0 0 0 0 0 0 -0 -0 0 0 0 0 0 0 0 0 1 0 1 0 0 0 0 0 2 2 1 3 4 1 0 0 0 0 0 0 0 0 0 0 0 0 0 0 0 0 0
0 0 0 0 0 0 0 0 0 -0 -0 0 0 0 0 0 0 0 0 1 0 1 0 0 -0 0 0 0 0 1 2 1 0 0 0 0 0 0 0 0 0 0 0 0 0 0 0 0 0
0 0 0 0 0 0 0 0 0 0 0 0 0 0 0 0 0 0 0 0 0 0 0 0 0 0 0 0 0 0 2 0 0 0 0 0 0 0 0 0 0 0 0 0 0 0 0 0 0
0 0 0 0 0 0 0 0 0 0 0 0 -0 0 0 0 0 0 0 0 0 0 0 0 0 0 0 0 0 0 0 2 1 0 1 0 0 0 0 0 0 0 0 0 0 0 0 0 0
Wind_Speed_500mb
28 24 21 17 6 4 8 12 26 19 18 52 55 11 20 16 20 13 62 72 66 68 65 60 54 51 46 43 38 32 29 29 27 25 22 21 18 19 15 15 15 14 14 14 14 15 17 18 18
24 23 22 12 2 2 11 13 28 13 66 93 70 28 40 12 57 68 77 61 56 70 67 62 57 51 47 43 39 35 31 28 25 23 20 17 15 11 9 10 11 11 11 12 13 14 15 16 16
21 14 8 8 7 13 7 12 30 54 35 26 9 27 16 27 53 79 61 61 48 73 68 64 59 53 48 43 39 36 33 28 25 21 18 14 12 7 4 6 9 11 12 14 15 14 14 13 13
10 6 14 1 19 33 24 26 42 24 53 21 8 16 38 54 46 52 62 59 52 72 70 64 59 53 48 43 39 36 33 29 25 21 17 12 9 5 3 4 7 9 12 15 16 17 17 16 15
4 11 6 9 23 26 35 47 27 18 19 31 20 15 44 67 41 59 59 50 46 73 68 63 58 53 48 43 40 36 33 30 26 22 18 12 7 3 2 4 7 9 10 12 13 15 16 16 15
8 10 4 10 25 32 35 28 29 7 3 21 33 22 17 33 40 54 51 42 38 69 70 65 58 54 49 44 41 38 33 29 26 22 18 12 7 2 2 5 7 8 10 10 12 14 14 13 14
18 5 12 19 27 37 37 44 16 20 25 8 20 13 23 47 24 41 38 37 30 62 68 66 61 54 49 45 41 38 34 30 26 22 17 13 7 2 3 4 6 8 10 11 12 13 14 16 21
32 6 15 20 24 39 44 29 14 39 45 25 51 20 21 55 65 53 53 39 43 40 53 61 61 57 52 48 43 39 35 31 27 22 18 13 7 2 2 4 7 11 13 14 16 16 14 17 19
40 7 20 18 23 38 62 15 33 32 60 38 32 59 34 60 49 60 64 65 58 47 40 56 58 56 53 49 45 41 36 33 29 24 19 13 7 6 7 12 14 15 14 15 23 24 17 11 10
19 8 19 18 32 28 50 40 35 13 20 10 52 58 63 59 61 68 70 73 60 51 37 54 57 56 54 52 48 45 41 36 31 25 19 13 17 11 7 14 19 14 16 13 18 13 8 7 3
37 20 21 40 57 58 34 50 55 25 3 28 25 58 57 62 55 60 71 66 61 47 37 37 57 55 54 52 49 46 42 37 32 27 21 22 15 9 4 4 10 13 9 17 12 11 13 19 7
17 44 49 52 64 59 27 57 35 39 12 30 11 41 61 55 51 53 57 68 60 47 39 33 42 52 51 43 48 45 42 38 33 27 26 32 18 15 7 9 5 4 7 9 8 16 18 9 11
18 22 55 62 59 61 64 39 28 40 58 27 34 43 59 51 50 50 59 60 59 53 51 46 41 36 49 39 32 36 39 35 29 27 35 31 25 22 19 18 13 11 7 9 11 10 11 8 5
42 45 45 56 55 50 28 34 37 43 51 56 41 26 30 38 46 47 45 51 64 64 60 57 53 43 51 46 40 28 34 26 27 21 17 31 28 30 28 30 28 25 20 8 3 4 15 16 8
44 18 25 31 30 17 39 24 18 41 48 63 62 49 41 26 40 47 56 45 48 73 66 62 60 51 59 45 41 29 26 32 34 29 18 39 27 30 33 28 25 14 9 3 3 0 7 4 9
16 14 12 15 24 38 25 24 22 52 55 58 63 58 54 46 42 50 42 59 39 62 61 62 64 60 52 43 35 36 39 45 47 34 38 41 35 34 30 27 19 12 9 4 2 7 4 13 10
13 16 18 19 27 19 17 21 25 58 63 49 59 64 59 61 58 50 54 57 54 70 68 59 60 60 58 51 48 43 52 45 42 42 42 43 38 41 31 27 19 15 10 5 1 5 5 18 9
16 14 17 26 26 18 23 36 30 54 62 58 67 64 62 69 64 56 61 69 58 59 74 67 61 54 51 60 55 53 53 43 44 45 46 41 37 37 38 27 20 17 10 8 6 9 11 17 13
26 19 21 18 19 6 16 15 22 47 53 37 37 44 51 76 73 61 73 74 76 69 68 68 63 54 59 66 67 59 54 54 44 49 44 40 39 42 39 27 27 18 10 8 7 9 18 9 14
34 29 21 19 25 17 17 22 21 14 12 25 29 38 53 52 74 76 86 80 77 77 76 67 64 64 63 60 71 62 59 50 47 46 41 40 38 44 39 32 29 18 13 8 8 9 13 15 5
20 16 15 17 18 20 12 21 21 19 24 36 37 53 60 58 42 62 88 83 79 80 82 74 73 73 60 63 58 64 56 56 54 51 45 42 37 45 43 36 31 23 19 15 9 10 7 5 12
19 19 21 19 16 13 9 24 17 17 22 18 41 57 67 72 64 37 60 95 99 97 90 76 82 82 73 66 73 71 62 72 72 61 49 45 39 45 45 38 31 29 24 19 13 12 10 7 5
22 20 24 20 19 5 9 8 12 15 19 22 31 60 82 78 75 63 49 87 99 100 102 92 87 88 83 82 74 77 80 77 72 57 47 43 41 47 48 41 36 32 27 22 15 12 13 11 7
29 19 21 10 6 17 10 16 23 12 18 18 23 4 27 94 94 76 55 69 96 100 102 97 100 102 97 91 79 80 90 88 84 67 49 36 40 50 54 47 41 38 30 26 21 16 15 11 8
26 10 7 7 8 17 17 22 20 18 25 23 17 12 21 32 36 23 14 54 92 106 108 106 113 112 107 104 96 86 100 93 90 76 43 22 38 58 59 54 51 45 36 30 25 21 18 13 11
18 4 5 18 13 18 21 34 16 18 39 61 31 29 23 17 25 34 32 24 48 52 41 44 57 70 85 99 94 97 101 98 97 94 64 39 58 55 61 61 57 51 44 34 31 25 21 18 14
15 11 12 3 13 6 7 16 13 38 42 50 55 72 84 77 72 30 28 32 27 6 19 42 45 40 46 48 68 88 101 106 96 83 68 89 77 56 40 76 71 63 52 42 35 28 25 21 20
23 21 10 10 8 13 6 7 3 21 27 31 37 53 79 91 95 88 32 50 54 47 5 19 18 70 74 53 65 60 87 100 100 79 74 71 87 81 88 84 83 69 60 50 41 37 30 26 25
25 13 9 7 12 6 5 9 9 15 14 27 32 56 66 72 86 79 72 53 44 56 49 11 18 23 39 51 63 73 80 97 100 80 83 76 87 81 81 75 83 77 67 57 50 43 35 31 29
26 26 14 5 11 6 2 10 10 16 17 29 30 43 60 61 72 79 55 69 60 50 51 48 20 15 36 61 66 79 71 102 109 101 92 82 96 78 81 82 80 81 73 66 58 50 42 35 35
Wind_Direction_500mb
301 313 323 327 37 81 218 192 85 10 268 248 247 162 127 47 158 159 153 165 167 164 164 165 164 158 154 149 145 140 138 136 132 129 127 121 118 114 111 98 82 67 56 50 40 30 23 22 27
294 304 316 275 117 291 282 105 112 107 246 264 229 93 76 76 113 138 154 171 172 167 166 166 166 163 159 155 152 147 144 141 141 138 136 132 125 116 106 85 65 45 31 25 21 17 14 11 12
293 294 280 167 204 229 257 145 151 175 238 236 308 60 73 119 131 143 161 161 166 168 168 167 167 167 164 161 158 153 149 148 148 148 144 146 133 128 94 53 34 19 10 8 7 5 8 9 8
286 286 255 154 254 271 258 271 193 215 232 166 240 100 54 138 140 158 163 161 173 171 169 169 169 169 168 166 163 159 156 154 154 155 154 157 142 138 75 33 24 15 6 1 358 355 356 4 13
265 273 255 258 268 271 276 275 222 193 175 171 163 62 71 67 139 152 165 166 178 171 169 170 171 171 171 170 167 165 163 160 160 160 162 160 157 140 60 17 4 5 10 -0 356 2 4 15 28
259 225 299 279 281 282 280 291 359 91 66 114 128 94 50 71 127 157 168 168 193 174 171 169 171 173 174 173 171 169 168 167 167 166 167 164 166 154 6 352 355 4 17 10 359 2 4 19 30
221 308 250 265 272 284 286 306 276 302 321 171 139 71 118 136 175 171 172 191 172 175 174 172 172 174 175 175 174 172 173 174 173 172 172 169 172 186 319 352 16 26 11 356 345 355 20 32 55
243 202 276 270 281 279 290 318 42 330 312 140 153 151 216 173 175 169 167 188 177 174 183 177 174 176 177 176 177 177 178 179 180 179 179 174 180 231 315 57 61 19 355 6 20 27 45 68 56
251 243 250 255 269 280 290 317 296 271 296 337 114 154 150 147 156 167 167 175 176 178 186 189 182 179 179 180 180 182 184 186 186 185 184 179 168 108 88 67 17 6 28 47 53 65 61 51 43
225 227 244 244 264 278 291 307 292 246 319 302 114 122 135 152 166 169 166 173 183 177 185 196 189 185 185 186 187 187 189 191 191 190 186 173 175 107 62 48 44 51 43 37 47 22 29 0 17
247 242 252 260 266 280 297 314 319 299 196 281 296 142 150 159 169 177 173 180 190 183 186 190 194 192 191 192 192 193 193 194 194 194 186 163 172 121 339 345 41 34 37 15 29 26 348 332 352
238 247 250 259 266 279 288 299 311 315 295 145 159 163 154 160 171 183 183 175 183 191 202 195 193 196 198 193 201 200 198 197 200 198 182 173 185 180 235 247 165 76 54 41 357 322 329 89 59
256 257 261 264 258 260 276 284 289 298 301 302 302 174 161 165 179 191 192 194 196 199 202 192 180 188 203 196 194 204 203 204 202 197 177 177 169 189 208 177 158 161 219 234 259 329 21 80 72
259 263 266 273 269 267 276 281 286 302 294 300 311 304 174 187 187 190 209 199 196 195 195 191 180 183 194 200 205 211 195 179 182 186 180 183 184 217 208 214 236 240 243 246 246 69 63 69 53
280 280 281 278 283 275 278 283 282 287 289 290 292 292 294 201 196 199 209 212 197 189 184 190 179 182 188 204 203 203 182 186 188 190 196 185 196 205 215 229 222 211 203 208 22 348 80 73 87
303 295 266 279 266 272 260 261 261 270 277 264 275 280 280 278 211 205 206 200 193 182 181 186 180 182 189 188 192 183 202 199 195 201 194 192 200 209 229 213 201 193 192 188 198 131 167 122 96
284 256 263 275 249 252 241 254 244 245 255 258 260 260 265 268 256 211 204 202 181 181 183 182 186 185 196 195 188 190 190 194 207 209 209 208 210 223 221 203 190 188 195 193 258 84 149 148 117
241 252 247 248 258 257 245 247 253 237 233 239 249 257 256 253 251 242 207 194 192 187 191 199 199 197 204 207 201 200 199 202 208 214 212 220 231 215 201 194 190 198 182 148 141 122 83 151 131
265 265 273 280 279 277 273 290 260 246 228 213 237 272 267 238 243 227 200 196 193 195 196 197 203 210 211 209 205 204 203 200 208 206 211 228 228 192 198 187 192 198 168 160 182 124 83 108 172
241 255 272 281 284 281 296 291 286 297 264 220 243 276 283 263 241 228 190 196 196 195 199 197 207 211 212 208 207 208 193 204 210 215 226 239 209 192 197 189 194 187 172 150 152 137 97 77 124
251 238 252 254 287 296 328 292 294 287 282 283 272 267 275 283 279 233 206 199 199 202 205 205 205 210 200 207 202 201 200 205 210 218 230 220 211 197 200 192 196 183 174 162 148 140 115 71 62
234 245 271 270 248 247 209 282 289 278 268 269 260 266 271 273 275 253 206 196 199 203 203 206 205 200 200 199 195 198 201 205 214 219 216 216 217 204 204 201 196 190 184 173 164 165 160 145 100
253 245 249 245 264 293 283 261 262 277 282 263 246 247 254 262 260 262 217 209 205 204 200 204 210 202 200 198 200 199 199 204 212 211 215 219 221 207 206 206 198 200 189 183 173 174 184 176 176
297 280 248 253 232 262 233 242 263 257 256 277 285 346 303 246 241 243 228 218 210 212 205 207 209 206 207 207 214 212 200 198 199 199 199 219 228 213 209 209 205 208 203 191 180 187 190 195 183
288 318 287 302 267 252 215 248 260 263 272 259 265 108 94 59 75 77 222 200 217 212 211 210 213 210 210 216 214 204 196 194 197 187 182 232 243 226 217 213 210 213 208 200 191 192 197 183 182
314 21 272 236 229 252 233 245 253 9 355 13 235 150 96 90 49 63 64 123 178 186 190 194 208 209 207 205 205 202 193 193 202 198 201 225 235 232 231 223 217 214 214 206 201 198 198 190 175
324 327 300 12 318 288 229 318 305 27 19 18 30 36 29 20 357 22 56 76 66 165 235 241 226 209 230 226 202 191 198 201 203 208 211 197 211 212 212 232 221 214 214 210 207 205 203 194 181
10 328 357 353 325 271 260 249 281 29 35 26 14 18 17 18 11 6 42 55 54 59 36 224 228 242 250 268 254 211 209 211 214 213 207 219 203 207 212 220 221 214 212 211 210 211 208 201 195
332 330 319 199 217 241 332 284 127 99 69 71 33 15 13 7 0 360 11 40 43 53 50 27 214 232 248 246 216 226 231 230 216 214 207 217 215 204 216 225 222 216 213 209 212 213 211 206 204
271 279 275 221 281 300 161 264 55 84 52 47 45 43 16 355 5 345 347 19 36 39 40 43 30 316 241 227 212 206 227 226 225 210 211 221 209 219 220 219 219 218 215 211 211 213 214 214 214
Wind_Speed_850mb
28 24 21 17 6 4 8 12 26 19 18 52 55 11 20 16 20 13 62 72 66 68 65 60 54 51 46 43 38 32 29 29 27 25 22 21 18 19 15 15 15 14 14 14 14 15 17 18 18
24 23 22 12 2 2 11 13 28 13 66 93 70 28 40 12 57 68 77 61 56 70 67 62 57 51 47 43 39 35 31 28 25 23 20 17 15 11 9 10 11 11 11 12 13 14 15 16 16
21 14 8 8 7 13 7 12 30 54 35 26 9 27 16 27 53 79 61 61 48 73 68 64 59 53 48 43 39 36 33 28 25 21 18 14 12 7 4 6 9 11 12 14 15 14 14 13 13
10 6 14 1 19 33 24 26 42 24 53 21 8 16 38 54 46 52 62 59 52 72 70 64 59 53 48 43 39 36 33 29 25 21 17 12 9 5 3 4 7 9 12 15 16 17 17 16 15
4 11 6 9 23 26 35 47 27 18 19 31 20 15 44 67 41 59 59 50 46 73 68 63 58 53 48 43 40 36 33 30 26 22 18 12 7 3 2 4 7 9 10 12 13 15 16 16 15
8 10 4 10 25 32 35 28 29 7 3 21 33 22 17 33 40 54 51 42 38 69 70 65 58 54 49 44 41 38 33 29 26 22 18 12 7 2 2 5 7 8 10 10 12 14 14 13 14
18 5 12 19 27 37 37 44 16 20 25 8 20 13 23 47 24 41 38 37 30 62 68 66 61 54 49 45 41 38 34 30 26 22 17 13 7 2 3 4 6 8 10 11 12 13 14 16 21
32 6 15 20 24 39 44 29 14 39 45 25 51 20 21 55 65 53 53 39 43 40 53 61 61 57 52 48 43 39 35 31 27 22 18 13 7 2 2 4 7 11 13 14 16 16 14 17 19
40 7 20 18 23 38 62 15 33 32 60 38 32 59 34 60 49 60 64 65 58 47 40 56 58 56 53 49 45 41 36 33 29 24 19 13 7 6 7 12 14 15 14 15 23 24 17 11 10
19 8 19 18 32 28 50 40 35 13 20 10 52 58 63 59 61 68 70 73 60 51 37 54 57 56 54 52 48 45 41 36 31 25 19 13 17 11 7 14 19 14 16 13 18 13 8 7 3
37 20 21 40 57 58 34 50 55 25 3 28 25 58 57 62 55 60 71 66 61 47 37 37 57 55 54 52 49 46 42 37 32 27 21 22 15 9 4 4 10 13 9 17 12 11 13 19 7
17 44 49 52 64 59 27 57 35 39 12 30 11 41 61 55 51 53 57 68 60 47 39 33 42 52 51 43 48 45 42 38 33 27 26 32 18 15 7 9 5 4 7 9 8 16 18 9 11
18 22 55 62 59 61 64 39 28 40 58 27 34 43 59 51 50 50 59 60 59 53 51 46 41 36 49 39 32 36 39 35 29 27 35 31 25 22 19 18 13 11 7 9 11 10 11 8 5
42 45 45 56 55 50 28 34 37 43 51 56 41 26 30 38 46 47 45 51 64 64 60 57 53 43 51 46 40 28 34 26 27 21 17 31 28 30 28 30 28 25 20 8 3 4 15 16 8
44 18 25 31 30 17 39 24 18 41 48 63 62 49 41 26 40 47 56 45 48 73 66 62 60 51 59 45 41 29 26 32 34 29 18 39 27 30 33 28 25 14 9 3 3 0 7 4 9
16 14 12 15 24 38 25 24 22 52 55 58 63 58 54 46 42 50 42 59 39 62 61 62 64 60 52 43 35 36 39 45 47 34 38 41 35 34 30 27 19 12 9 4 2 7 4 13 10
13 16 18 19 27 19 17 21 25 58 63 49 59 64 59 61 58 50 54 57 54 70 68 59 60 60 58 51 48 43 52 45 42 42 42 43 38 41 31 27 19 15 10 5 1 5 5 18 9
16 14 17 26 26 18 23 36 30 54 62 58 67 64 62 69 64 56 61 69 58 59 74 67 61 54 51 60 55 53 53 43 44 45 46 41 37 37 38 27 20 17 10 8 6 9 11 17 13
26 19 21 18 19 6 16 15 22 47 53 37 37 44 51 76 73 61 73 74 76 69 68 68 63 54 59 66 67 59 54 54 44 49 44 40 39 42 39 27 27 18 10 8 7 9 18 9 14
34 29 21 19 25 17 17 22 21 14 12 25 29 38 53 52 74 76 86 80 77 77 76 67 64 64 63 60 71 62 59 50 47 46 41 40 38 44 39 32 29 18 13 8 8 9 13 15 5
20 16 15 17 18 20 12 21 21 19 24 36 37 53 60 58 42 62 88 83 79 80 82 74 73 73 60 63 58 64 56 56 54 51 45 42 37 45 43 36 31 23 19 15 9 10 7 5 12
19 19 21 19 16 13 9 24 17 17 22 18 41 57 67 72 64 37 60 95 99 97 90 76 82 82 73 66 73 71 62 72 72 61 49 45 39 45 45 38 31 29 24 19 13 12 10 7 5
22 20 24 20 19 5 9 8 12 15 19 22 31 60 82 78 75 63 49 87 99 100 102 92 87 88 83 82 74 77 80 77 72 57 47 43 41 47 48 41 36 32 27 22 15 12 13 11 7
29 19 21 10 6 17 10 16 23 12 18 18 23 4 27 94 94 76 55 69 96 100 102 97 100 102 97 91 79 80 90 88 84 67 49 36 40 50 54 47 41 38 30 26 21 16 15 11 8
26 10 7 7 8 17 17 22 20 18 25 23 17 12 21 32 36 23 14 54 92 106 108 106 113 112 107 104 96 86 100 93 90 76 43 22 38 58 59 54 51 45 36 30 25 21 18 13 11
18 4 5 18 13 18 21 34 16 18 39 61 31 29 23 17 25 34 32 24 48 52 41 44 57 70 85 99 94 97 101 98 97 94 64 39 58 55 61 61 57 51 44 34 31 25 21 18 14
15 11 12 3 13 6 7 16 13 38 42 50 55 72 84 77 72 30 28 32 27 6 19 42 45 40 46 48 68 88 101 106 96 83 68 89 77 56 40 76 71 63 52 42 35 28 25 21 20
23 21 10 10 8 13 6 7 3 21 27 31 37 53 79 91 95 88 32 50 54 47 5 19 18 70 74 53 65 60 87 100 100 79 74 71 87 81 88 84 83 69 60 50 41 37 30 26 25
25 13 9 7 12 6 5 9 9 15 14 27 32 56 66 72 86 79 72 53 44 56 49 11 18 23 39 51 63 73 80 97 100 80 83 76 87 81 81 75 83 77 67 57 50 43 35 31 29
26 26 14 5 11 6 2 10 10 16 17 29 30 43 60 61 72 79 55 69 60 50 51 48 20 15 36 61 66 79 71 102 109 101 92 82 96 78 81 82 80 81 73 66 58 50 42 35 35
Wind_Direction_850mb
301 313 323 327 37 81 218 192 85 10 268 248 247 162 127 47 158 159 153 165 167 164 164 165 164 158 154 149 145 140 138 136 132 129 127 121 118 114 111 98 82 67 56 50 40 30 23 22 27
294 304 316 275 117 291 282 105 112 107 246 264 229 93 76 76 113 138 154 171 172 167 166 166 166 163 159 155 152 147 144 141 141 138 136 132 125 116 106 85 65 45 31 25 21 17 14 11 12
293 294 280 167 204 229 257 145 151 175 238 236 308 60 73 119 131 143 161 161 166 168 168 167 167 167 164 161 158 153 149 148 148 148 144 146 133 128 94 53 34 19 10 8 7 5 8 9 8
286 286 255 154 254 271 258 271 193 215 232 166 240 100 54 138 140 158 163 161 173 171 169 169 169 169 168 166 163 159 156 154 154 155 154 157 142 138 75 33 24 15 6 1 358 355 356 4 13
265 273 255 258 268 271 276 275 222 193 175 171 163 62 71 67 139 152 165 166 178 171 169 170 171 171 171 170 167 165 163 160 160 160 162 160 157 140 60 17 4 5 10 -0 356 2 4 15 28
259 225 299 279 281 282 280 291 359 91 66 114 128 94 50 71 127 157 168 168 193 174 171 169 171 173 174 173 171 169 168 167 167 166 167 164 166 154 6 352 355 4 17 10 359 2 4 19 30
221 308 250 265 272 284 286 306 276 302 321 171 139 71 118 136 175 171 172 191 172 175 174 172 172 174 175 175 174 172 173 174 173 172 172 169 172 186 319 352 16 26 11 356 345 355 20 32 55
243 202 276 270 281 279 290 318 42 330 312 140 153 151 216 173 175 169 167 188 177 174 183 177 174 176 177 176 177 177 178 179 180 179 179 174 180 231 315 57 61 19 355 6 20 27 45 68 56
251 243 250 255 269 280 290 317 296 271 296 337 114 154 150 147 156 167 167 175 176 178 186 189 182 179 179 180 180 182 184 186 186 185 184 179 168 108 88 67 17 6 28 47 53 65 61 51 43
225 227 244 244 264 278 291 307 292 246 319 302 114 122 135 152 166 169 166 173 183 177 185 196 189 185 185 186 187 187 189 191 191 190 186 173 175 107 62 48 44 51 43 37 47 22 29 0 17
247 242 252 260 266 280 297 314 319 299 196 281 296 142 150 159 169 177 173 180 190 183 186 190 194 192 191 192 192 193 193 194 194 194 186 163 172 121 339 345 41 34 37 15 29 26 348 332 352
238 247 250 259 266 279 288 299 311 315 295 145 159 163 154 160 171 183 183 175 183 191 202 195 193 196 198 193 201 200 198 197 200 198 182 173 185 180 235 247 165 76 54 41 357 322 329 89 59
256 257 261 264 258 260 276 284 289 298 301 302 302 174 161 165 179 191 192 194 196 199 202 192 180 188 203 196 194 204 203 204 202 197 177 177 169 189 208 177 158 161 219 234 259 329 21 80 72
259 263 266 273 269 267 276 281 286 302 294 300 311 304 174 187 187 190 209 199 196 195 195 191 180 183 194 200 205 211 195 179 182 186 180 183 184 217 208 214 236 240 243 246 246 69 63 69 53
280 280 281 278 283 275 278 283 282 287 289 290 292 292 294 201 196 199 209 212 197 189 184 190 179 182 188 204 203 203 182 186 188 190 196 185 196 205 215 229 222 211 203 208 22 348 80 73 87
303 295 266 279 266 272 260 261 261 270 277 264 275 280 280 278 211 205 206 200 193 182 181 186 180 182 189 188 192 183 202 199 195 201 194 192 200 209 229 213 201 193 192 188 198 131 167 122 96
284 256 263 275 249 252 241 254 244 245 255 258 260 260 265 268 256 211 204 202 181 181 183 182 186 185 196 195 188 190 190 194 207 209 209 208 210 223 221 203 190 188 195 193 258 84 149 148 117
241 252 247 248 258 257 245 247 253 237 233 239 249 257 256 253 251 242 207 194 192 187 191 199 199 197 204 207 201 200 199 202 208 214 212 220 231 215 201 194 190 198 182 148 141 122 83 151 131
265 265 273 280 279 277 273 290 260 246 228 213 237 272 267 238 243 227 200 196 193 195 196 197 203 210 211 209 205 204 203 200 208 206 211 228 228 192 198 187 192 198 168 160 182 124 83 108 172
241 255 272 281 284 281 296 291 286 297 264 220 243 276 283 263 241 228 190 196 196 195 199 197 207 211 212 208 207 208 193 204 210 215 226 239 209 192 197 189 194 187 172 150 152 137 97 77 124
251 238 252 254 287 296 328 292 294 287 282 283 272 267 275 283 279 233 206 199 199 202 205 205 205 210 200 207 202 201 200 205 210 218 230 220 211 197 200 192 196 183 174 162 148 140 115 71 62
234 245 271 270 248 247 209 282 289 278 268 269 260 266 271 273 275 253 206 196 199 203 203 206 205 200 200 199 195 198 201 205 214 219 216 216 217 204 204 201 196 190 184 173 164 165 160 145 100
253 245 249 245 264 293 283 261 262 277 282 263 246 247 254 262 260 262 217 209 205 204 200 204 210 202 200 198 200 199 199 204 212 211 215 219 221 207 206 206 198 200 189 183 173 174 184 176 176
297 280 248 253 232 262 233 242 263 257 256 277 285 346 303 246 241 243 228 218 210 212 205 207 209 206 207 207 214 212 200 198 199 199 199 219 228 213 209 209 205 208 203 191 180 187 190 195 183
288 318 287 302 267 252 215 248 260 263 272 259 265 108 94 59 75 77 222 200 217 212 211 210 213 210 210 216 214 204 196 194 197 187 182 232 243 226 217 213 210 213 208 200 191 192 197 183 182
314 21 272 236 229 252 233 245 253 9 355 13 235 150 96 90 49 63 64 123 178 186 190 194 208 209 207 205 205 202 193 193 202 198 201 225 235 232 231 223 217 214 214 206 201 198 198 190 175
324 327 300 12 318 288 229 318 305 27 19 18 30 36 29 20 357 22 56 76 66 165 235 241 226 209 230 226 202 191 198 201 203 208 211 197 211 212 212 232 221 214 214 210 207 205 203 194 181
10 328 357 353 325 271 260 249 281 29 35 26 14 18 17 18 11 6 42 55 54 59 36 224 228 242 250 268 254 211 209 211 214 213 207 219 203 207 212 220 221 214 212 211 210 211 208 201 195
332 330 319 199 217 241 332 284 127 99 69 71 33 15 13 7 0 360 11 40 43 53 50 27 214 232 248 246 216 226 231 230 216 214 207 217 215 204 216 225 222 216 213 209 212 213 211 206 204
271 279 275 221 281 300 161 264 55 84 52 47 45 43 16 355 5 345 347 19 36 39 40 43 30 316 241 227 212 206 227 226 225 210 211 221 209 219 220 219 219 218 215 211 211 213 214 214 214